QPF
0.01 0.01 0.01 0.01 0.01 0.01 0.01 0.02 0.02 0.03 0.04 0.05 0.06 0.07 0.08 0.07 0.06 0.05 0.04 0.03 0.03 0.02 0.02 0.02 0.02 0.01 0.01 0.01 0.01 0.01 0.01 0.01 0.02 0.02 0.02 0.02 0.01 0.01 0.01 0.01 0.01 0.01 0.01
0.01 0.00 0.00 0.00 0.00 0.00 0.01 0.01 0.01 0.02 0.02 0.03 0.03 0.04 0.04 0.04 0.03 0.02 0.02 0.02 0.02 0.01 0.01 0.01 0.02 0.02 0.02 0.01 0.01 0.01 0.01 0.01 0.02 0.02 0.02 0.02 0.01 0.01 0.01 0.01 0.01 0.01 0.01
0.00 0.00 0.00 0.00 0.00 0.00 0.01 0.01 0.01 0.01 0.01 0.01 0.02 0.02 0.02 0.01 0.01 0.01 0.01 0.01 0.01 0.01 0.01 0.01 0.01 0.01 0.01 0.01 0.01 0.01 0.01 0.01 0.01 0.02 0.01 0.01 0.01 0.01 0.01 0.01 0.01 0.01 0.01
0.00 0.00 0.00 0.00 0.00 0.00 0.00 0.00 0.00 0.01 0.01 0.01 0.01 0.01 0.01 0.01 0.01 0.01 0.01 0.01 0.01 0.00 0.01 0.01 0.01 0.01 0.01 0.01 0.02 0.02 0.02 0.01 0.01 0.01 0.01 0.01 0.01 0.01 0.01 0.01 0.01 0.01 0.02
0.00 0.00 0.00 0.00 0.00 0.00 0.00 0.00 0.00 0.00 0.00 0.00 0.00 0.00 0.00 0.00 0.00 0.01 0.01 0.01 0.00 0.00 0.00 0.01 0.01 0.01 0.01 0.02 0.02 0.02 0.02 0.02 0.02 0.02 0.02 0.01 0.01 0.01 0.01 0.01 0.01 0.01 0.01
0.00 0.00 0.00 0.00 0.00 0.00 0.00 0.00 0.00 0.00 0.00 0.00 0.00 0.00 0.00 0.00 0.00 0.00 0.01 0.01 0.01 0.01 0.01 0.01 0.01 0.01 0.01 0.02 0.02 0.02 0.02 0.03 0.03 0.03 0.02 0.02 0.02 0.02 0.02 0.02 0.02 0.01 0.01
0.00 0.00 0.00 0.00 0.00 0.00 0.00 0.00 0.00 0.00 0.00 0.00 0.00 0.00 0.00 0.00 0.00 0.00 0.00 0.01 0.00 0.01 0.01 0.01 0.01 0.01 0.02 0.02 0.02 0.03 0.03 0.03 0.03 0.03 0.03 0.02 0.02 0.02 0.02 0.02 0.02 0.01 0.01
0.00 0.00 0.01 0.01 0.01 0.01 0.01 0.01 0.01 0.00 0.00 0.00 0.00 0.00 0.00 0.00 0.00 0.00 0.00 0.00 0.01 0.01 0.01 0.01 0.01 0.01 0.02 0.02 0.02 0.03 0.03 0.03 0.03 0.04 0.04 0.03 0.03 0.03 0.03 0.03 0.02 0.02 0.01
0.00 0.00 0.00 0.01 0.01 0.01 0.01 0.01 0.01 0.01 0.01 0.00 0.00 0.00 0.01 0.00 0.01 0.01 0.01 0.01 0.01 0.01 0.01 0.01 0.01 0.01 0.02 0.02 0.02 0.02 0.02 0.02 0.03 0.03 0.03 0.03 0.03 0.02 0.02 0.02 0.02 0.02 0.02
0.00 0.00 0.00 0.00 0.00 0.01 0.01 0.01 0.01 0.01 0.01 0.01 0.01 0.01 0.01 0.01 0.01 0.01 0.01 0.01 0.01 0.01 0.01 0.01 0.01 0.01 0.02 0.02 0.02 0.02 0.02 0.02 0.02 0.02 0.02 0.02 0.02 0.02 0.02 0.02 0.02 0.02 0.02
0.00 0.00 0.00 0.00 0.00 0.00 0.00 0.01 0.01 0.01 0.01 0.01 0.01 0.01 0.01 0.01 0.01 0.01 0.01 0.01 0.01 0.01 0.01 0.01 0.01 0.02 0.02 0.02 0.02 0.02 0.02 0.02 0.02 0.02 0.02 0.02 0.02 0.02 0.02 0.01 0.01 0.02 0.02
0.00 0.00 0.00 0.00 0.00 0.00 0.00 0.01 0.01 0.01 0.01 0.01 0.01 0.01 0.01 0.01 0.01 0.01 0.01 0.01 0.01 0.01 0.01 0.01 0.01 0.02 0.02 0.02 0.02 0.02 0.02 0.02 0.02 0.02 0.02 0.02 0.02 0.02 0.02 0.02 0.02 0.02 0.02
0.00 0.00 0.00 0.00 0.00 0.00 0.00 0.01 0.01 0.01 0.01 0.01 0.01 0.01 0.01 0.01 0.01 0.01 0.01 0.01 0.01 0.01 0.01 0.01 0.01 0.02 0.01 0.01 0.01 0.02 0.02 0.02 0.02 0.02 0.02 0.02 0.02 0.02 0.02 0.02 0.02 0.02 0.02
0.01 0.00 0.00 0.00 0.00 0.01 0.01 0.01 0.01 0.01 0.01 0.01 0.01 0.01 0.01 0.01 0.01 0.01 0.01 0.01 0.01 0.01 0.01 0.01 0.01 0.01 0.01 0.01 0.01 0.01 0.01 0.02 0.02 0.03 0.02 0.02 0.03 0.03 0.02 0.02 0.02 0.02 0.02
0.01 0.01 0.01 0.01 0.01 0.01 0.01 0.01 0.01 0.01 0.01 0.01 0.01 0.01 0.01 0.01 0.01 0.01 0.02 0.01 0.01 0.02 0.02 0.01 0.01 0.01 0.01 0.01 0.01 0.01 0.01 0.01 0.02 0.02 0.03 0.03 0.03 0.03 0.03 0.02 0.02 0.03 0.03
0.01 0.01 0.01 0.01 0.01 0.01 0.01 0.01 0.01 0.01 0.02 0.02 0.02 0.02 0.01 0.01 0.01 0.01 0.01 0.01 0.02 0.02 0.02 0.01 0.01 0.01 0.01 0.01 0.01 0.01 0.01 0.01 0.01 0.02 0.02 0.02 0.03 0.03 0.03 0.02 0.03 0.03 0.04
0.01 0.01 0.01 0.01 0.02 0.02 0.02 0.02 0.02 0.01 0.01 0.01 0.01 0.01 0.01 0.01 0.01 0.01 0.01 0.01 0.02 0.02 0.02 0.01 0.01 0.01 0.01 0.01 0.01 0.01 0.01 0.01 0.01 0.01 0.01 0.02 0.02 0.03 0.03 0.02 0.03 0.03 0.03
0.01 0.01 0.01 0.01 0.01 0.02 0.02 0.02 0.02 0.02 0.02 0.01 0.01 0.01 0.01 0.01 0.01 0.01 0.01 0.01 0.01 0.01 0.01 0.01 0.01 0.01 0.01 0.01 0.01 0.01 0.01 0.01 0.01 0.01 0.01 0.01 0.02 0.02 0.03 0.03 0.03 0.03 0.03
0.00 0.01 0.01 0.01 0.01 0.01 0.01 0.01 0.02 0.02 0.01 0.01 0.01 0.01 0.01 0.01 0.01 0.01 0.02 0.02 0.01 0.01 0.01 0.01 0.01 0.01 0.01 0.01 0.01 0.01 0.01 0.01 0.01 0.01 0.01 0.01 0.01 0.02 0.02 0.02 0.03 0.03 0.03
0.00 0.00 0.01 0.01 0.01 0.01 0.01 0.01 0.01 0.01 0.01 0.01 0.01 0.01 0.01 0.01 0.01 0.01 0.01 0.01 0.02 0.02 0.01 0.01 0.01 0.01 0.01 0.01 0.01 0.01 0.01 0.01 0.01 0.01 0.01 0.01 0.01 0.01 0.01 0.02 0.02 0.03 0.03
0.00 0.00 0.01 0.01 0.01 0.01 0.01 0.01 0.01 0.01 0.00 0.00 0.01 0.01 0.01 0.01 0.01 0.01 0.01 0.01 0.01 0.01 0.01 0.01 0.01 0.01 0.01 0.01 0.01 0.01 0.01 0.01 0.01 0.01 0.01 0.01 0.01 0.01 0.01 0.01 0.02 0.02 0.02
0.01 0.01 0.01 0.01 0.01 0.01 0.01 0.01 0.01 0.01 0.00 0.00 0.00 0.01 0.01 0.01 0.01 0.01 0.01 0.01 0.01 0.01 0.01 0.01 0.01 0.01 0.01 0.01 0.01 0.01 0.01 0.01 0.01 0.01 0.01 0.01 0.01 0.01 0.01 0.01 0.01 0.01 0.01
0.01 0.01 0.01 0.01 0.00 0.01 0.01 0.01 0.01 0.01 0.01 0.01 0.01 0.01 0.01 0.01 0.01 0.01 0.01 0.01 0.01 0.01 0.01 0.01 0.01 0.01 0.01 0.01 0.01 0.01 0.01 0.01 0.01 0.01 0.01 0.01 0.01 0.01 0.01 0.01 0.01 0.01 0.01
0.01 0.01 0.00 0.00 0.00 0.01 0.01 0.01 0.01 0.01 0.01 0.01 0.01 0.01 0.01 0.01 0.01 0.01 0.01 0.01 0.01 0.01 0.01 0.01 0.01 0.01 0.01 0.01 0.01 0.01 0.01 0.01 0.01 0.01 0.01 0.02 0.02 0.02 0.02 0.02 0.02 0.02 0.02
0.01 0.00 0.00 0.00 0.00 0.00 0.01 0.00 0.01 0.01 0.01 0.01 0.01 0.01 0.01 0.01 0.01 0.01 0.01 0.01 0.01 0.01 0.01 0.02 0.02 0.02 0.02 0.01 0.01 0.01 0.01 0.01 0.02 0.01 0.02 0.02 0.02 0.02 0.02 0.02 0.02 0.02 0.02
0.00 0.00 0.00 0.00 0.01 0.00 0.01 0.00 0.00 0.01 0.01 0.01 0.01 0.01 0.01 0.01 0.01 0.01 0.01 0.01 0.01 0.01 0.01 0.02 0.02 0.02 0.02 0.01 0.01 0.01 0.01 0.01 0.01 0.01 0.02 0.02 0.02 0.02 0.02 0.02 0.02 0.02 0.02
MSLP
1016.87 1017.17 1017.45 1017.69 1017.89 1018.08 1018.27 1018.48 1018.73 1019.02 1019.34 1019.68 1020.02 1020.33 1020.60 1020.83 1021.02 1021.19 1021.36 1021.53 1021.74 1021.97 1022.22 1022.46 1022.67 1022.82 1022.89 1022.89 1022.79 1022.64 1022.44 1022.23 1022.03 1021.88 1021.77 1021.73 1021.74 1021.78 1021.85 1021.93 1022.01 1022.08 1022.13
1016.03 1016.31 1016.56 1016.79 1017.00 1017.21 1017.42 1017.66 1017.94 1018.25 1018.60 1018.95 1019.30 1019.62 1019.90 1020.14 1020.35 1020.54 1020.73 1020.94 1021.16 1021.41 1021.67 1021.92 1022.14 1022.31 1022.41 1022.42 1022.36 1022.24 1022.08 1021.91 1021.74 1021.60 1021.49 1021.43 1021.40 1021.38 1021.39 1021.39 1021.38 1021.37 1021.36
1015.23 1015.47 1015.69 1015.90 1016.11 1016.32 1016.56 1016.83 1017.14 1017.49 1017.86 1018.25 1018.62 1018.96 1019.27 1019.54 1019.78 1020.01 1020.23 1020.47 1020.72 1021.00 1021.27 1021.54 1021.77 1021.95 1022.06 1022.10 1022.07 1021.98 1021.86 1021.72 1021.57 1021.44 1021.32 1021.23 1021.15 1021.07 1020.99 1020.91 1020.82 1020.72 1020.63
1014.48 1014.67 1014.85 1015.03 1015.22 1015.43 1015.69 1016.00 1016.36 1016.76 1017.18 1017.61 1018.03 1018.42 1018.77 1019.09 1019.37 1019.64 1019.90 1020.17 1020.46 1020.75 1021.04 1021.32 1021.56 1021.75 1021.87 1021.92 1021.91 1021.85 1021.75 1021.62 1021.49 1021.36 1021.23 1021.10 1020.97 1020.83 1020.67 1020.51 1020.33 1020.16 1019.99
1013.82 1013.96 1014.08 1014.21 1014.37 1014.58 1014.86 1015.21 1015.63 1016.10 1016.60 1017.11 1017.60 1018.05 1018.46 1018.83 1019.16 1019.46 1019.76 1020.06 1020.37 1020.68 1020.98 1021.25 1021.49 1021.68 1021.80 1021.85 1021.85 1021.79 1021.70 1021.58 1021.45 1021.30 1021.15 1020.99 1020.82 1020.62 1020.41 1020.18 1019.95 1019.71 1019.49
1013.30 1013.36 1013.41 1013.49 1013.62 1013.83 1014.13 1014.53 1015.02 1015.58 1016.17 1016.77 1017.34 1017.87 1018.34 1018.76 1019.13 1019.47 1019.79 1020.11 1020.42 1020.72 1021.02 1021.28 1021.50 1021.67 1021.78 1021.82 1021.81 1021.74 1021.64 1021.51 1021.36 1021.21 1021.04 1020.85 1020.65 1020.43 1020.19 1019.93 1019.67 1019.41 1019.16
1012.95 1012.94 1012.91 1012.93 1013.02 1013.22 1013.55 1014.01 1014.57 1015.22 1015.91 1016.60 1017.26 1017.87 1018.40 1018.86 1019.26 1019.62 1019.94 1020.24 1020.53 1020.82 1021.08 1021.32 1021.51 1021.65 1021.73 1021.74 1021.70 1021.61 1021.49 1021.34 1021.18 1021.01 1020.83 1020.64 1020.44 1020.22 1019.98 1019.74 1019.48 1019.23 1019.00
1012.81 1012.72 1012.62 1012.57 1012.63 1012.82 1013.17 1013.68 1014.31 1015.04 1015.82 1016.60 1017.34 1018.00 1018.58 1019.06 1019.47 1019.81 1020.11 1020.38 1020.63 1020.87 1021.09 1021.29 1021.44 1021.54 1021.58 1021.57 1021.49 1021.37 1021.22 1021.05 1020.87 1020.68 1020.50 1020.32 1020.14 1019.96 1019.77 1019.57 1019.37 1019.18 1018.99
1012.89 1012.72 1012.56 1012.46 1012.47 1012.66 1013.02 1013.56 1014.25 1015.04 1015.89 1016.73 1017.51 1018.20 1018.79 1019.27 1019.66 1019.96 1020.22 1020.44 1020.64 1020.83 1021.00 1021.15 1021.26 1021.32 1021.33 1021.28 1021.17 1021.02 1020.84 1020.64 1020.44 1020.25 1020.08 1019.92 1019.78 1019.65 1019.53 1019.42 1019.31 1019.20 1019.10
1013.13 1012.91 1012.70 1012.56 1012.55 1012.73 1013.09 1013.65 1014.37 1015.19 1016.06 1016.92 1017.71 1018.40 1018.97 1019.42 1019.77 1020.02 1020.22 1020.38 1020.53 1020.68 1020.81 1020.92 1021.00 1021.04 1021.02 1020.94 1020.81 1020.63 1020.42 1020.20 1019.98 1019.79 1019.62 1019.48 1019.38 1019.32 1019.28 1019.26 1019.26 1019.26 1019.25
1013.47 1013.24 1013.01 1012.85 1012.84 1013.00 1013.37 1013.92 1014.64 1015.45 1016.31 1017.15 1017.92 1018.57 1019.09 1019.49 1019.78 1019.98 1020.13 1020.25 1020.36 1020.47 1020.58 1020.68 1020.75 1020.77 1020.75 1020.66 1020.51 1020.31 1020.08 1019.83 1019.59 1019.38 1019.21 1019.09 1019.02 1019.01 1019.04 1019.11 1019.21 1019.32 1019.42
1013.85 1013.64 1013.43 1013.29 1013.28 1013.45 1013.81 1014.35 1015.04 1015.82 1016.63 1017.41 1018.12 1018.70 1019.17 1019.50 1019.73 1019.89 1020.00 1020.09 1020.19 1020.29 1020.41 1020.52 1020.61 1020.65 1020.64 1020.55 1020.40 1020.18 1019.92 1019.65 1019.38 1019.13 1018.94 1018.82 1018.76 1018.77 1018.85 1018.99 1019.16 1019.35 1019.55
1014.21 1014.06 1013.91 1013.81 1013.84 1014.02 1014.38 1014.90 1015.54 1016.26 1017.01 1017.71 1018.33 1018.84 1019.23 1019.51 1019.69 1019.82 1019.92 1020.01 1020.12 1020.26 1020.41 1020.56 1020.69 1020.77 1020.78 1020.71 1020.55 1020.32 1020.04 1019.73 1019.41 1019.12 1018.89 1018.73 1018.65 1018.66 1018.75 1018.91 1019.12 1019.37 1019.64
1014.53 1014.48 1014.41 1014.39 1014.47 1014.69 1015.05 1015.54 1016.14 1016.80 1017.46 1018.07 1018.61 1019.04 1019.37 1019.60 1019.75 1019.87 1019.97 1020.10 1020.25 1020.44 1020.64 1020.85 1021.03 1021.15 1021.20 1021.14 1020.99 1020.75 1020.44 1020.08 1019.71 1019.36 1019.07 1018.85 1018.72 1018.69 1018.75 1018.90 1019.11 1019.38 1019.67
1014.83 1014.88 1014.91 1014.99 1015.14 1015.41 1015.79 1016.27 1016.83 1017.42 1018.00 1018.53 1018.99 1019.35 1019.63 1019.82 1019.97 1020.09 1020.23 1020.39 1020.59 1020.84 1021.10 1021.37 1021.60 1021.76 1021.84 1021.80 1021.65 1021.39 1021.04 1020.64 1020.22 1019.80 1019.44 1019.14 1018.95 1018.85 1018.86 1018.96 1019.15 1019.40 1019.68
1015.13 1015.29 1015.43 1015.61 1015.85 1016.17 1016.57 1017.06 1017.58 1018.12 1018.64 1019.10 1019.49 1019.80 1020.03 1020.21 1020.35 1020.49 1020.66 1020.86 1021.11 1021.40 1021.70 1022.01 1022.27 1022.45 1022.54 1022.51 1022.36 1022.08 1021.71 1021.27 1020.80 1020.33 1019.90 1019.54 1019.28 1019.11 1019.06 1019.10 1019.23 1019.44 1019.69
1015.47 1015.72 1015.97 1016.24 1016.56 1016.95 1017.39 1017.87 1018.38 1018.88 1019.34 1019.75 1020.09 1020.35 1020.56 1020.72 1020.86 1021.01 1021.18 1021.40 1021.67 1021.97 1022.29 1022.60 1022.86 1023.05 1023.13 1023.09 1022.93 1022.64 1022.26 1021.80 1021.30 1020.80 1020.34 1019.93 1019.62 1019.40 1019.29 1019.27 1019.35 1019.50 1019.71
1015.87 1016.20 1016.53 1016.89 1017.28 1017.72 1018.19 1018.69 1019.18 1019.65 1020.07 1020.43 1020.72 1020.95 1021.12 1021.26 1021.38 1021.52 1021.68 1021.89 1022.13 1022.41 1022.69 1022.97 1023.20 1023.35 1023.41 1023.36 1023.18 1022.90 1022.52 1022.07 1021.58 1021.09 1020.62 1020.21 1019.88 1019.64 1019.49 1019.44 1019.47 1019.57 1019.73
1016.34 1016.71 1017.11 1017.53 1017.98 1018.46 1018.95 1019.45 1019.92 1020.36 1020.74 1021.06 1021.31 1021.49 1021.63 1021.73 1021.82 1021.92 1022.03 1022.18 1022.37 1022.57 1022.79 1022.99 1023.15 1023.25 1023.27 1023.19 1023.02 1022.75 1022.40 1021.99 1021.55 1021.11 1020.68 1020.31 1020.00 1019.77 1019.62 1019.54 1019.55 1019.61 1019.73
1016.83 1017.24 1017.68 1018.14 1018.63 1019.13 1019.63 1020.11 1020.56 1020.96 1021.29 1021.57 1021.76 1021.90 1021.99 1022.04 1022.07 1022.10 1022.14 1022.20 1022.29 1022.39 1022.50 1022.60 1022.68 1022.71 1022.68 1022.58 1022.41 1022.17 1021.88 1021.54 1021.19 1020.82 1020.48 1020.18 1019.93 1019.74 1019.61 1019.54 1019.54 1019.58 1019.67
1017.30 1017.74 1018.21 1018.70 1019.20 1019.70 1020.18 1020.63 1021.04 1021.38 1021.66 1021.88 1022.01 1022.09 1022.12 1022.11 1022.07 1022.01 1021.96 1021.92 1021.89 1021.87 1021.86 1021.85 1021.83 1021.78 1021.71 1021.60 1021.45 1021.25 1021.03 1020.78 1020.53 1020.28 1020.04 1019.83 1019.65 1019.52 1019.44 1019.40 1019.40 1019.44 1019.51
1017.71 1018.18 1018.67 1019.17 1019.66 1020.14 1020.58 1020.98 1021.32 1021.60 1021.81 1021.96 1022.03 1022.04 1022.01 1021.92 1021.81 1021.67 1021.53 1021.38 1021.23 1021.10 1020.97 1020.85 1020.74 1020.62 1020.51 1020.38 1020.25 1020.11 1019.96 1019.81 1019.66 1019.52 1019.39 1019.27 1019.18 1019.12 1019.09 1019.08 1019.09 1019.14 1019.20
1018.03 1018.53 1019.04 1019.53 1020.01 1020.44 1020.82 1021.14 1021.40 1021.60 1021.73 1021.80 1021.80 1021.75 1021.65 1021.51 1021.33 1021.12 1020.89 1020.65 1020.41 1020.18 1019.95 1019.74 1019.55 1019.37 1019.22 1019.09 1018.98 1018.88 1018.79 1018.72 1018.66 1018.61 1018.57 1018.53 1018.52 1018.51 1018.52 1018.54 1018.57 1018.62 1018.69
1018.28 1018.81 1019.32 1019.80 1020.23 1020.59 1020.89 1021.13 1021.29 1021.40 1021.44 1021.43 1021.37 1021.25 1021.10 1020.91 1020.69 1020.43 1020.14 1019.84 1019.53 1019.22 1018.92 1018.64 1018.39 1018.17 1017.98 1017.83 1017.72 1017.64 1017.59 1017.56 1017.56 1017.56 1017.58 1017.61 1017.63 1017.67 1017.71 1017.75 1017.80 1017.86 1017.93
1018.47 1019.02 1019.52 1019.97 1020.33 1020.62 1020.83 1020.96 1021.02 1021.02 1020.97 1020.89 1020.76 1020.60 1020.41 1020.19 1019.94 1019.65 1019.34 1019.01 1018.65 1018.30 1017.95 1017.61 1017.31 1017.03 1016.80 1016.62 1016.49 1016.39 1016.34 1016.32 1016.33 1016.35 1016.39 1016.44 1016.49 1016.55 1016.61 1016.68 1016.75 1016.83 1016.92
1018.64 1019.19 1019.66 1020.05 1020.34 1020.53 1020.62 1020.64 1020.60 1020.50 1020.37 1020.21 1020.03 1019.83 1019.62 1019.38 1019.12 1018.82 1018.50 1018.15 1017.78 1017.39 1017.00 1016.62 1016.26 1015.93 1015.64 1015.40 1015.21 1015.06 1014.97 1014.91 1014.88 1014.88 1014.91 1014.96 1015.02 1015.09 1015.17 1015.27 1015.38 1015.50 1015.64
Thickness
5508 5505 5503 5500 5497 5495 5492 5490 5486 5483 5479 5477 5475 5472 5469 5467 5464 5461 5459 5456 5453 5451 5447 5444 5441 5437 5434 5431 5427 5424 5421 5418 5420 5421 5415 5411 5406 5403 5401 5397 5395 5394 5393
5501 5499 5497 5494 5491 5489 5486 5483 5479 5476 5473 5470 5468 5465 5462 5460 5457 5455 5452 5449 5446 5444 5440 5436 5434 5430 5426 5423 5420 5417 5414 5410 5408 5409 5406 5401 5398 5394 5391 5389 5386 5384 5383
5494 5492 5490 5488 5485 5483 5480 5476 5473 5470 5467 5464 5461 5458 5456 5453 5450 5447 5445 5441 5439 5436 5433 5429 5426 5422 5419 5415 5412 5409 5406 5402 5399 5397 5396 5392 5389 5385 5382 5380 5377 5376 5374
5487 5485 5483 5480 5478 5475 5472 5469 5466 5463 5460 5458 5454 5451 5448 5446 5443 5440 5437 5434 5432 5428 5425 5421 5418 5414 5411 5408 5404 5401 5398 5394 5390 5388 5387 5384 5381 5377 5372 5371 5370 5368 5366
5478 5477 5475 5472 5469 5466 5463 5460 5458 5455 5453 5450 5447 5444 5441 5439 5436 5433 5430 5427 5424 5421 5417 5414 5410 5407 5403 5399 5396 5394 5389 5386 5383 5381 5379 5377 5374 5369 5365 5362 5359 5359 5358
5469 5467 5465 5463 5461 5458 5455 5452 5449 5447 5445 5442 5440 5437 5434 5432 5429 5425 5421 5419 5416 5413 5410 5406 5403 5400 5396 5391 5388 5385 5381 5377 5376 5373 5371 5368 5365 5360 5356 5351 5348 5347 5350
5459 5457 5456 5454 5451 5449 5446 5444 5441 5439 5437 5435 5433 5430 5427 5425 5421 5417 5413 5410 5408 5405 5402 5399 5396 5393 5388 5385 5381 5377 5373 5369 5365 5363 5361 5359 5355 5350 5345 5341 5338 5335 5335
5448 5446 5445 5443 5442 5440 5437 5436 5433 5431 5428 5427 5425 5422 5420 5417 5413 5409 5406 5402 5400 5397 5394 5391 5387 5384 5380 5376 5373 5370 5366 5363 5358 5354 5351 5348 5343 5339 5334 5330 5326 5324 5323
5437 5436 5434 5433 5431 5430 5428 5426 5424 5422 5419 5417 5415 5413 5411 5408 5404 5401 5397 5395 5392 5389 5386 5382 5378 5375 5372 5367 5364 5361 5358 5355 5350 5345 5341 5337 5332 5328 5323 5318 5314 5312 5314
5427 5425 5423 5421 5420 5420 5418 5415 5413 5411 5409 5406 5405 5403 5400 5398 5395 5392 5388 5386 5384 5381 5377 5374 5369 5366 5363 5359 5355 5352 5349 5346 5340 5336 5332 5328 5323 5319 5314 5309 5305 5302 5301
5414 5412 5411 5410 5409 5408 5406 5404 5401 5399 5397 5395 5394 5392 5390 5387 5385 5382 5378 5375 5373 5371 5369 5366 5362 5357 5354 5350 5346 5343 5340 5335 5330 5326 5323 5319 5314 5309 5305 5300 5296 5292 5290
5401 5400 5399 5397 5396 5395 5393 5391 5388 5386 5385 5383 5382 5381 5379 5376 5374 5372 5368 5365 5362 5359 5358 5356 5352 5348 5344 5340 5336 5332 5328 5323 5319 5316 5313 5310 5305 5300 5296 5291 5287 5283 5280
5388 5386 5385 5384 5383 5382 5380 5378 5376 5374 5373 5372 5370 5369 5368 5365 5363 5360 5357 5354 5351 5348 5346 5343 5340 5336 5332 5329 5324 5320 5315 5311 5308 5305 5303 5299 5294 5289 5284 5281 5277 5274 5271
5375 5374 5372 5371 5370 5369 5367 5366 5364 5363 5361 5359 5358 5357 5356 5354 5351 5349 5345 5343 5340 5337 5333 5330 5327 5323 5320 5316 5312 5308 5303 5298 5295 5292 5289 5285 5281 5277 5273 5270 5267 5265 5263
5362 5361 5360 5359 5358 5356 5354 5352 5351 5350 5348 5347 5346 5344 5343 5343 5341 5337 5333 5331 5328 5325 5321 5318 5315 5312 5308 5304 5300 5296 5291 5287 5283 5279 5275 5272 5268 5265 5262 5259 5256 5254 5253
5350 5349 5348 5347 5345 5344 5342 5341 5339 5337 5335 5333 5332 5330 5330 5329 5328 5325 5322 5319 5316 5312 5308 5306 5304 5300 5296 5292 5288 5284 5279 5275 5271 5267 5263 5259 5256 5253 5250 5247 5245 5244 5243
5337 5337 5336 5334 5332 5331 5329 5328 5327 5326 5323 5322 5320 5319 5318 5317 5315 5313 5311 5307 5304 5300 5296 5294 5292 5288 5284 5280 5275 5271 5267 5263 5258 5254 5251 5248 5245 5241 5238 5236 5234 5232 5231
5325 5324 5323 5322 5320 5318 5316 5314 5313 5312 5311 5311 5308 5306 5305 5304 5302 5300 5297 5295 5292 5287 5284 5282 5280 5276 5272 5268 5263 5259 5255 5251 5247 5243 5240 5236 5233 5230 5227 5225 5223 5221 5219
5313 5312 5311 5309 5307 5305 5303 5301 5300 5298 5297 5297 5296 5294 5291 5290 5288 5286 5283 5279 5277 5275 5272 5269 5267 5264 5260 5256 5251 5247 5243 5239 5236 5232 5228 5225 5221 5218 5216 5214 5212 5210 5208
5301 5300 5298 5296 5294 5292 5290 5289 5287 5285 5284 5283 5283 5281 5278 5276 5275 5273 5268 5265 5263 5261 5259 5257 5254 5251 5247 5243 5239 5235 5231 5228 5224 5220 5217 5214 5211 5208 5205 5202 5201 5200 5199
5289 5287 5284 5283 5281 5280 5278 5276 5275 5272 5271 5270 5270 5267 5266 5264 5263 5260 5257 5253 5251 5249 5246 5244 5242 5238 5234 5230 5226 5223 5219 5216 5213 5209 5205 5202 5199 5196 5194 5192 5191 5188 5187
5277 5275 5273 5271 5269 5267 5265 5264 5262 5260 5259 5258 5257 5255 5253 5250 5249 5247 5244 5241 5238 5236 5233 5231 5229 5226 5222 5218 5214 5211 5208 5205 5202 5198 5194 5191 5188 5186 5183 5181 5180 5178 5177
5265 5263 5261 5258 5256 5255 5253 5252 5250 5248 5247 5245 5243 5242 5240 5239 5237 5234 5232 5229 5226 5224 5221 5218 5216 5214 5210 5206 5203 5199 5197 5194 5190 5187 5184 5181 5178 5176 5174 5172 5171 5169 5168
5252 5251 5249 5247 5244 5242 5241 5239 5238 5236 5235 5233 5232 5231 5230 5228 5226 5224 5221 5218 5215 5212 5210 5207 5205 5203 5200 5196 5193 5189 5186 5183 5180 5176 5173 5171 5169 5167 5165 5163 5162 5161 5160
5240 5238 5236 5235 5233 5231 5230 5228 5227 5226 5224 5223 5222 5221 5220 5218 5216 5214 5211 5208 5205 5203 5200 5198 5196 5193 5190 5187 5184 5180 5177 5174 5170 5167 5163 5160 5159 5157 5156 5155 5154 5153 5153
5229 5227 5225 5223 5222 5220 5219 5218 5217 5215 5214 5213 5212 5211 5209 5208 5206 5204 5201 5198 5196 5194 5191 5189 5187 5184 5181 5178 5175 5172 5169 5166 5163 5159 5155 5152 5150 5149 5148 5147 5147 5147 5146